Starlink 33720

operational
NORAD ID: 63468 Int'l Des: 2025-070 Owner: SPXS Country: US Constellation: starlink
LEOCIRCULAR

About Starlink 33720

Description loading...

Live Position

Loading 3D Globe...

Upcoming Passes

Altitude History

Altitude vs Time

uPlot chart will show altitude changes over time

Two-Line Element Set

1 63468U 25070J 25259.94416787 -.00029154 00000-0 -10567-2 0 9994
2 63468 42.9988 161.0775 0001045 245.2642 114.8101 15.27499516 26408
Epoch: Sep 16, 2025 • Age: 38 hours

Current Status

Altitude 485.4 km
Velocity 7.63 km/s
Sub-Earth Point 33.52°N, 11.02°E
Launch Date Apr 6, 2025
Age 0.4 years
Type internet

Technical Details

Classification Payload
Mass 575.00 kg
Dry Mass 530.00 kg
Total Mass 575.00 kg
Length 0.30 m
Diameter 4.10 m
Span 29.00 m
Shape Box + pan
Manufacturer SPXS
Bus Type Starlink V2MO
Phase Status In Orbit
Owner/State SPXS/US

Large Constellations

Loading constellations...